Weather History for ENEK - November, 2012

Change the Weather History Date:

Wednesday, November 7, 2012

  Actual Average Record
Temperature  
Mean Temperature 49 °F -  
Max Temperature 50 °F 49 °F 53 °F (1999)
Min Temperature 48 °F 44 °F 32 °F (2007)
Degree Days  
Heating Degree Days 16    
Moisture  
Dew Point 46 °F    
Average Humidity 88    
Maximum Humidity 93    
Minimum Humidity 81    
Precipitation  
Precipitation 0.00 in - - ()
Sea Level Pressure  
Sea Level Pressure 29.83 in    
Wind  
Wind Speed 24 mph ()    
Max Wind Speed 39 mph    
Max Gust Speed -    
Visibility 6.6 miles    
Events Rain    
Averages and records for this station are not official NWS values.
T = Trace of Precipitation, MM = Missing Value Source: Averaged Metar Reports

Daily Weather History Graph

Daily Weather History Graph

Search for Another Location

Airport or City:

Trip Planner

Search our weather history database for the weather conditions in past years. The results will help you decide how hot, cold, wet, or windy it might be!

Date:

Astronomy

Nov. 07, 2012 Rise Set
Actual Time 8:09 AM CET 4:50 PM CET
Civil Twilight 7:28 AM CET 5:32 PM CET
Nautical Twilight 6:42 AM CET 6:17 PM CET
Astronomical Twilight 5:58 AM CET 7:01 PM CET
Moon No Moon Rise 2:04 PM CET (11/7)
Length of Visible Light 10h 04m
Length of Day
8h 41m
Last Quarter, 46% of the Moon is Illuminated
Nov 7
Last Quarter
Nov 13
New
Nov 20
First Quarter
Nov 28
Full
Dec 6
Last Quarter

Hourly Weather History & Observations

Time (CET) Temp. Dew Point Humidity Pressure Visibility Wind Dir Wind Speed Gust Speed Precip Events Conditions
12:20 AM 48.2 °F 44.6 °F 87% 29.83 in 6.2 mi NW 25.3 mph - N/A   Mostly Cloudy
12:50 AM 48.2 °F 44.6 °F 87% 29.83 in 6.2 mi NW 21.9 mph - N/A   Mostly Cloudy
1:00 AM 48 °F 45 °F 84% 29.86 in 12 mi WNW 17.9 mph - -   Partly Cloudy
1:20 AM 48.2 °F 44.6 °F 87% 29.83 in 6.2 mi WNW 23.0 mph - N/A   Mostly Cloudy
2:50 AM 48.2 °F 46.4 °F 93% 29.86 in 6.2 mi WNW 18.4 mph - N/A   Mostly Cloudy
3:20 AM 48.2 °F 46.4 °F 93% 29.86 in 6.2 mi WNW 18.4 mph - N/A Rain Light Rain
3:50 AM 48.2 °F 46.4 °F 93% 29.86 in 6.2 mi WNW 21.9 mph - N/A Rain Light Drizzle
4:20 AM 48.2 °F 46.4 °F 93% 29.86 in 5.0 mi WNW 18.4 mph - N/A Rain Rain
4:50 AM 48.2 °F 46.4 °F 93% 29.86 in 6.2 mi WNW 26.5 mph - N/A Rain Light Drizzle
5:20 AM 48.2 °F 46.4 °F 93% 29.86 in 6.2 mi WNW 29.9 mph - N/A   Mostly Cloudy
5:50 AM 48.2 °F 46.4 °F 93% 29.86 in 6.2 mi WNW 27.6 mph - N/A   Mostly Cloudy
6:20 AM 48.2 °F 46.4 °F 93% 29.86 in 6.2 mi WNW 27.6 mph - N/A   Mostly Cloudy
6:50 AM 48.2 °F 46.4 °F 93% 29.86 in 6.2 mi WNW 27.6 mph - N/A   Mostly Cloudy
7:00 AM 49 °F 45 °F 82% 29.89 in 12 mi WNW 22.4 mph - -   Partly Cloudy
7:20 AM 48.2 °F 46.4 °F 93% 29.89 in 6.2 mi WNW 27.6 mph - N/A   Mostly Cloudy
7:50 AM 48.2 °F 44.6 °F 87% 29.89 in 6.2 mi WNW 27.6 mph - N/A   Scattered Clouds
8:50 AM 48.2 °F 44.6 °F 87% 29.89 in 6.2 mi West 25.3 mph - N/A   Scattered Clouds
9:20 AM 50.0 °F 44.6 °F 82% 29.89 in 6.2 mi West 27.6 mph - N/A   Scattered Clouds
9:50 AM 50.0 °F 44.6 °F 82% 29.89 in 6.2 mi West 27.6 mph - N/A   Scattered Clouds
10:20 AM 50.0 °F 46.4 °F 87% 29.89 in 6.2 mi West 25.3 mph - N/A   Scattered Clouds
10:50 AM 50.0 °F 46.4 °F 87% 29.89 in 6.2 mi West 25.3 mph - N/A   Scattered Clouds
11:50 AM 50.0 °F 46.4 °F 87% 29.89 in 6.2 mi West 24.2 mph - N/A   Scattered Clouds
12:20 PM 50.0 °F 46.4 °F 87% 29.89 in 6.2 mi WSW 24.2 mph - N/A   Scattered Clouds
1:00 PM 50 °F 46 °F 81% 29.87 in - WSW 20.1 mph - -  
1:20 PM 50.0 °F 46.4 °F 87% 29.86 in 6.2 mi WSW 24.2 mph - N/A   Mostly Cloudy
1:50 PM 50.0 °F 46.4 °F 87% 29.86 in 6.2 mi West 32.2 mph - N/A   Mostly Cloudy
2:20 PM 50.0 °F 46.4 °F 87% 29.86 in 6.2 mi West 32.2 mph - N/A   Mostly Cloudy
2:50 PM 50.0 °F 46.4 °F 87% 29.83 in 6.2 mi West 32.2 mph - N/A   Mostly Cloudy
3:20 PM 50.0 °F 46.4 °F 87% 29.83 in 6.2 mi West 31.1 mph - N/A   Mostly Cloudy
3:50 PM - - N/A% - - West 31.1 mph - N/A   Unknown
4:20 PM 48.2 °F 46.4 °F 93% 29.80 in 6.2 mi West 31.1 mph - N/A Rain Light Rain Showers
4:50 PM 48.2 °F 46.4 °F 93% 29.80 in 6.2 mi West 31.1 mph - N/A Rain Light Rain Showers
5:50 PM 50.0 °F 46.4 °F 87% 29.80 in 6.2 mi WSW 31.1 mph - N/A Rain Light Rain Showers
6:20 PM 50.0 °F 46.4 °F 87% 29.80 in 6.2 mi WSW 31.1 mph - N/A Rain Light Rain Showers
6:50 PM 50.0 °F 46.4 °F 87% 29.80 in 6.2 mi WSW 33.4 mph - N/A   Mostly Cloudy
7:10 PM 50 °F 47 °F 84% 29.81 in 12 mi WSW 24.6 mph - -   Partly Cloudy
7:20 PM 50.0 °F 46.4 °F 87% 29.80 in 6.2 mi WSW 33.4 mph - N/A   Mostly Cloudy
7:50 PM 50.0 °F 46.4 °F 87% 29.77 in 6.2 mi WSW 32.2 mph - N/A   Mostly Cloudy
8:20 PM 50.0 °F 46.4 °F 87% 29.77 in 6.2 mi WSW 32.2 mph - N/A   Scattered Clouds
8:50 PM 50.0 °F 46.4 °F 87% 29.77 in 6.2 mi WSW 33.4 mph - N/A   Mostly Cloudy
9:20 PM 50.0 °F 46.4 °F 87% 29.74 in 6.2 mi WSW 32.2 mph - N/A   Mostly Cloudy
9:50 PM 50.0 °F 46.4 °F 87% 29.74 in 6.2 mi WSW 36.8 mph - N/A   Partly Cloudy
10:20 PM 50.0 °F 46.4 °F 87% 29.74 in 6.2 mi WSW 39.1 mph - N/A   Partly Cloudy
10:50 PM 50.0 °F 46.4 °F 87% 29.74 in 6.2 mi WSW 36.8 mph - N/A   Partly Cloudy
11:20 PM 50.0 °F 46.4 °F 87% 29.71 in 6.2 mi WSW 36.8 mph - N/A   Partly Cloudy
11:50 PM 50.0 °F 46.4 °F 87% 29.71 in 6.2 mi WSW 36.8 mph - N/A   Partly Cloudy